TimeEST,TemperatureF,Dew PointF,Humidity,Sea Level PressureIn,VisibilityMPH,Wind Direction,Wind SpeedMPH,Gust SpeedMPH,PrecipitationIn,Events,Conditions,WindDirDegrees,DateUTC
12:15 AM,33.8,33.8,100,29.72,2.5,Calm,Calm,-,0.01,,Overcast,0,2013-02-14 05:15:00
12:35 AM,33.8,33.8,100,29.72,2.5,Calm,Calm,-,0.01,,Overcast,0,2013-02-14 05:35:00
12:55 AM,33.8,32.0,93,29.73,2.5,Calm,Calm,-,0.01,,Overcast,0,2013-02-14 05:55:00
1:15 AM,33.8,32.0,93,29.73,2.0,Calm,Calm,-,N/A,,Overcast,0,2013-02-14 06:15:00
1:35 AM,33.8,32.0,93,29.75,1.8,West,5.8,-,N/A,,Overcast,280,2013-02-14 06:35:00
1:55 AM,33.8,32.0,93,29.75,2.0,Calm,Calm,-,N/A,,Overcast,0,2013-02-14 06:55:00
2:15 AM,33.8,32.0,93,29.76,2.0,Calm,Calm,-,N/A,,Overcast,0,2013-02-14 07:15:00
2:35 AM,33.8,33.8,100,29.78,2.0,Calm,Calm,-,N/A,,Overcast,0,2013-02-14 07:35:00
2:55 AM,33.8,33.8,100,29.79,3.0,Calm,Calm,-,N/A,,Overcast,0,2013-02-14 07:55:00
3:15 AM,33.8,33.8,100,29.79,2.5,Calm,Calm,-,N/A,,Overcast,0,2013-02-14 08:15:00
3:35 AM,33.8,33.8,100,29.79,2.5,Calm,Calm,-,N/A,,Overcast,0,2013-02-14 08:35:00
3:55 AM,33.8,32.0,93,29.80,2.5,Calm,Calm,-,N/A,,Overcast,0,2013-02-14 08:55:00
4:15 AM,33.8,32.0,93,29.81,2.0,West,3.5,-,N/A,,Overcast,280,2013-02-14 09:15:00
4:35 AM,33.8,32.0,93,29.82,2.0,Calm,Calm,-,N/A,,Unknown,0,2013-02-14 09:35:00
4:55 AM,32.0,32.0,100,29.82,1.8,Calm,Calm,-,N/A,,Scattered Clouds,0,2013-02-14 09:55:00
5:15 AM,32.0,32.0,100,29.84,2.0,Calm,Calm,-,N/A,,Unknown,0,2013-02-14 10:15:00
5:35 AM,32.0,32.0,100,29.84,2.0,Calm,Calm,-,N/A,,Unknown,0,2013-02-14 10:35:00
5:55 AM,32.0,32.0,100,29.85,3.0,Calm,Calm,-,N/A,,Unknown,0,2013-02-14 10:55:00
6:15 AM,33.8,32.0,93,29.86,4.0,Calm,Calm,-,N/A,,Scattered Clouds,0,2013-02-14 11:15:00
6:35 AM,33.8,32.0,93,29.88,5.0,Calm,Calm,-,N/A,,Scattered Clouds,0,2013-02-14 11:35:00
6:55 AM,32.0,32.0,100,29.89,4.0,Calm,Calm,-,N/A,,Mostly Cloudy,0,2013-02-14 11:55:00
7:15 AM,32.0,32.0,100,29.90,1.2,Calm,Calm,-,N/A,,Overcast,0,2013-02-14 12:15:00
7:35 AM,32.0,32.0,100,29.91,1.8,Calm,Calm,-,N/A,,Scattered Clouds,0,2013-02-14 12:35:00
7:55 AM,33.8,32.0,93,29.92,2.0,Calm,Calm,-,N/A,,Unknown,0,2013-02-14 12:55:00
8:15 AM,35.6,33.8,93,29.93,2.0,Calm,Calm,-,N/A,,Unknown,0,2013-02-14 13:15:00
8:35 AM,35.6,33.8,93,29.94,3.0,West,4.6,-,N/A,,Unknown,280,2013-02-14 13:35:00
8:55 AM,35.6,33.8,93,29.94,4.0,WNW,3.5,-,N/A,,Clear,300,2013-02-14 13:55:00
9:15 AM,37.4,32.0,81,29.95,5.0,WNW,5.8,-,N/A,,Clear,300,2013-02-14 14:15:00
9:35 AM,37.4,32.0,81,29.95,7.0,WNW,6.9,-,N/A,,Clear,300,2013-02-14 14:35:00
10:15 AM,39.2,32.0,75,29.96,7.0,NW,6.9,-,N/A,,Clear,320,2013-02-14 15:15:00
10:35 AM,39.2,32.0,75,29.96,10.0,NW,6.9,-,N/A,,Clear,310,2013-02-14 15:35:00
10:55 AM,41.0,32.0,70,29.97,10.0,NW,6.9,-,N/A,,Clear,310,2013-02-14 15:55:00
11:15 AM,41.0,32.0,70,29.97,10.0,NNW,4.6,-,N/A,,Clear,340,2013-02-14 16:15:00
11:35 AM,41.0,32.0,70,29.97,10.0,Calm,Calm,-,N/A,,Clear,0,2013-02-14 16:35:00
11:55 AM,42.8,32.0,66,29.96,10.0,North,3.5,-,N/A,,Clear,10,2013-02-14 16:55:00
12:15 PM,42.8,32.0,66,29.96,10.0,WNW,5.8,-,N/A,,Clear,300,2013-02-14 17:15:00
12:35 PM,41.0,32.0,70,29.95,10.0,Calm,Calm,-,N/A,,Clear,0,2013-02-14 17:35:00
12:55 PM,42.8,32.0,66,29.95,10.0,West,3.5,-,N/A,,Clear,270,2013-02-14 17:55:00
1:15 PM,44.6,33.8,66,29.94,10.0,Calm,Calm,-,N/A,,Scattered Clouds,0,2013-02-14 18:15:00
1:35 PM,44.6,32.0,61,29.95,10.0,West,4.6,-,N/A,,Scattered Clouds,270,2013-02-14 18:35:00
1:55 PM,46.4,32.0,57,29.95,10.0,West,5.8,-,N/A,,Scattered Clouds,260,2013-02-14 18:55:00
2:15 PM,46.4,32.0,57,29.94,10.0,SW,6.9,-,N/A,,Scattered Clouds,220,2013-02-14 19:15:00
2:35 PM,46.4,32.0,57,29.95,10.0,WNW,4.6,-,N/A,,Scattered Clouds,300,2013-02-14 19:35:00
2:55 PM,46.4,32.0,57,29.94,10.0,SSW,8.1,-,N/A,,Scattered Clouds,210,2013-02-14 19:55:00
3:15 PM,46.4,30.2,53,29.94,10.0,SW,5.8,-,N/A,,Scattered Clouds,230,2013-02-14 20:15:00
3:35 PM,46.4,32.0,57,29.94,10.0,WSW,5.8,-,N/A,,Scattered Clouds,250,2013-02-14 20:35:00
3:55 PM,44.6,30.2,57,29.95,10.0,WSW,6.9,-,N/A,,Scattered Clouds,250,2013-02-14 20:55:00
4:15 PM,44.6,32.0,61,29.96,10.0,West,6.9,-,N/A,,Clear,260,2013-02-14 21:15:00
4:35 PM,44.6,30.2,57,29.96,10.0,West,6.9,-,N/A,,Clear,270,2013-02-14 21:35:00
4:55 PM,44.6,28.4,53,29.96,10.0,West,3.5,-,N/A,,Clear,260,2013-02-14 21:55:00
5:15 PM,42.8,30.2,61,29.95,10.0,Calm,Calm,-,N/A,,Clear,0,2013-02-14 22:15:00
5:35 PM,42.8,30.2,61,29.95,10.0,Calm,Calm,-,N/A,,Clear,0,2013-02-14 22:35:00
5:55 PM,41.0,30.2,65,29.96,10.0,Calm,Calm,-,N/A,,Clear,0,2013-02-14 22:55:00
6:15 PM,41.0,28.4,61,29.98,10.0,SW,3.5,-,N/A,,Clear,230,2013-02-14 23:15:00
6:35 PM,39.2,28.4,65,29.98,10.0,Calm,Calm,-,N/A,,Clear,0,2013-02-14 23:35:00
6:55 PM,39.2,28.4,65,29.98,10.0,SW,3.5,-,N/A,,Clear,220,2013-02-14 23:55:00
7:15 PM,35.6,30.2,81,29.98,10.0,Calm,Calm,-,N/A,,Clear,0,2013-02-15 00:15:00
7:35 PM,35.6,30.2,81,29.99,10.0,Calm,Calm,-,N/A,,Clear,0,2013-02-15 00:35:00
7:55 PM,33.8,30.2,87,29.98,10.0,Calm,Calm,-,N/A,,Clear,0,2013-02-15 00:55:00
8:15 PM,35.6,30.2,81,29.99,10.0,South,3.5,-,N/A,,Clear,190,2013-02-15 01:15:00
8:35 PM,37.4,30.2,75,29.99,10.0,SSW,4.6,-,N/A,,Clear,200,2013-02-15 01:35:00
8:55 PM,35.6,30.2,81,29.99,10.0,Calm,Calm,-,N/A,,Clear,0,2013-02-15 01:55:00
9:15 PM,37.4,30.2,75,30.00,10.0,WSW,3.5,-,N/A,,Clear,240,2013-02-15 02:15:00
9:35 PM,33.8,30.2,87,30.00,10.0,Calm,Calm,-,N/A,,Clear,0,2013-02-15 02:35:00
9:55 PM,32.0,30.2,93,29.99,7.0,Calm,Calm,-,N/A,,Clear,0,2013-02-15 02:55:00
10:15 PM,32.0,30.2,93,29.99,7.0,Calm,Calm,-,N/A,,Clear,0,2013-02-15 03:15:00
10:35 PM,32.0,30.2,93,29.99,7.0,Calm,Calm,-,N/A,,Clear,0,2013-02-15 03:35:00
10:55 PM,32.0,30.2,93,29.99,7.0,Calm,Calm,-,N/A,,Clear,0,2013-02-15 03:55:00
11:15 PM,35.6,32.0,87,29.99,10.0,South,4.6,-,N/A,,Clear,170,2013-02-15 04:15:00
11:35 PM,33.8,32.0,93,29.99,7.0,South,3.5,-,N/A,,Clear,190,2013-02-15 04:35:00
11:55 PM,33.8,32.0,93,30.00,7.0,South,3.5,-,N/A,,Clear,170,2013-02-15 04:55:00